Regional Weather Roundup
Issued by NWS

Home | Current Version | Previous Version | Text Only | Print | Product List | Glossary Off
Versions: 1 2 3 4 5 6 7 8 9 10 11 12 13 14 15 16 17 18 19 20 21 22 23 24 25 26 27 28 29 30 31 32 33 34 35 36 37 38 39 40 41 42 43 44 45 46 47 48 49 50

000
ASUS45 KSLC 030910
RWRUT

UTAH REGIONAL WEATHER ROUNDUP
NATIONAL WEATHER SERVICE SALT LAKE CITY UT
300 AM MDT FRI JUL 03 2015

UTZ001>011-023>025-031000-

NORTHERN UTAH

CITY           SKY/WX    TMP DP  RH WIND       PRES   REMARKS
BRIGHAM CITY   CLEAR     70  46  42 CALM      30.00S
HILL AFB       CLEAR     74  46  36 E18G25    30.03S
LOGAN          CLEAR     61  52  72 NW6       30.03F
OGDEN          CLEAR     75  47  36 S10       30.00S
PROVO AIRPORT  PTCLDY    64  45  48 SE7       30.05R
SALT LAKE CITY CLEAR     78  48  34 SE9       29.99S
VERNAL         CLEAR     75  42  30 N9        30.08S
WENDOVER       CLEAR     81  45  28 N3        30.02S
HEBER CITY     PTCLDY    55  45  67 CALM      30.14S
WEST JORDAN    CLEAR     70  43  37 S6        30.04S

$$

UTZ012>022-026-027-031000-

SOUTHERN/CENTRAL UTAH

CITY           SKY/WX    TMP DP  RH WIND       PRES   REMARKS
BLANDING       MOCLDY    64  55  72 NW3       30.25S
BRYCE CANYON   MOCLDY    58  49  72 CALM      30.29F
CEDAR CITY     CLOUDY    67  49  52 CALM      30.13F
DELTA          CLEAR     72  45  37 MISG      30.05S
HANKSVILLE     MOCLDY    73  37  27 CALM      29.99R
MILFORD        MOCLDY    70  53  54 S7        30.07F
MOAB/CYNLANDS  CLEAR     80  52  37 SE12      29.96S
PRICE          PTCLDY    69  32  25 NE9       30.10S
ST GEORGE      MOSUNNY   82  54  36 SE3       29.93S
KANAB          PTCLDY    66  55  68 N5        30.14S

$$

REGIONAL REPORTS     COLORADO/ARIZONA

CITY           SKY/WX    TMP DP  RH WIND       PRES   REMARKS
CRAIG, CO      PTCLDY    67  44  43 CALM      30.18R
GRAND JUNCTION PTCLDY    76  49  38 SE14      30.02R
RIFLE          PTCLDY    67  42  40 S3        30.10S
MONTROSE       PTCLDY    72  48  42 E13       30.12S
CORTEZ         CLEAR     63  54  72 N5        30.17F
PAGE, AZ       MOCLDY    83  50  31 N8        29.98F
GRAND CANYON     N/A    N/A N/A N/A MISG      30.22F
KINGMAN        PTCLDY    80  51  36 S9        29.97F
FLAGSTAFF      MOCLDY    62  50  64 SW5       30.25R

$$

REGIONAL REPORTS    NEVADA/IDAHO/WYOMING

CITY           SKY/WX    TMP DP  RH WIND       PRES   REMARKS
LAS VEGAS, NV  MOCLDY    93  51  23 S9        29.80F HX  90
ELY            MOCLDY    66  49  54 CALM      30.21F
ELKO           CLEAR     66  48  52 E6        30.13S
POCATELLO, ID  CLEAR     66  44  45 E6        30.00S
BURLEY         CLEAR     70  45  40 SW12      29.97S
EVANSTON, WY   PTCLDY    62  42  47 E7        30.25F
ROCK SPRINGS   CLEAR     59  50  72 NE8       30.25S
KEMMERER       CLEAR     59  45  58 N13       30.28F

$$


USA.gov is the U.S. government's official web portal to all federal, state and local government web resources and services.